Location: Unspecified
(22.6800°N, 112.2000°E)
Time: 00:38:58
(UTC+08:00)

SR - All Passes

Search period start: 29 July 2021 00:00
Search period end: 08 August 2021 00:00
Orbit: 577 x 878 km, 66.7° (Epoch: 27 July)

Date Brightness Start Highest point End Pass type
(mag) Time Alt. Az. Time Alt. Az. Time Alt. Az.
29 Jul - 05:51:20 10° S 05:56:39 36° ESE 06:01:54 10° NE daylight
29 Jul - 07:34:02 10° WSW 07:38:41 24° WNW 07:43:15 10° N daylight
29 Jul - 16:25:01 10° N 16:28:55 28° ENE 16:32:39 10° ESE daylight
29 Jul - 18:08:12 10° WNW 18:10:32 14° WSW 18:12:48 10° SW daylight
30 Jul - 05:03:40 10° SE 05:07:04 16° ESE 05:10:27 10° ENE visible
30 Jul - 06:43:02 10° SW 06:48:45 51° WNW 06:54:20 10° N daylight
30 Jul - 15:37:21 10° NE 15:38:51 11° ENE 15:40:20 10° ENE daylight
30 Jul - 17:16:53 10° NW 17:21:01 39° WSW 17:24:58 10° S daylight
31 Jul - 05:53:04 10° SSW 05:58:57 74° ESE 06:04:43 10° NNE daylight
31 Jul - 07:39:21 10° WNW 07:41:22 12° WNW 07:43:21 10° NW daylight
31 Jul - 16:26:52 10° NNW 16:31:21 71° ENE 16:35:34 10° SSE daylight
01 Aug - 05:04:03 10° S 05:09:16 33° ESE 05:14:23 10° NE visible
01 Aug - 06:46:27 10° WSW 06:51:15 26° WNW 06:55:58 10° N daylight
01 Aug - 15:37:42 10° N 15:41:28 26° ENE 15:45:03 10° ESE daylight
01 Aug - 17:20:30 10° WNW 17:23:08 16° WSW 17:25:42 10° SW daylight
02 Aug - 04:16:39 10° SE 04:19:41 14° ESE 04:22:42 10° ENE visible
02 Aug - 05:55:34 10° SW 06:01:20 55° WNW 06:06:58 10° NNE daylight
02 Aug - 14:50:45 10° NE 14:51:22 10° ENE 14:51:58 10° ENE daylight
02 Aug - 16:29:23 10° NW 16:33:35 43° WSW 16:37:36 10° S daylight
03 Aug - 05:05:42 10° SSW 05:11:32 68° ESE 05:17:16 10° NNE visible
03 Aug - 06:51:24 10° W 06:53:54 13° WNW 06:56:23 10° NNW daylight
03 Aug - 15:39:28 10° NNW 15:43:54 64° ENE 15:48:04 10° SSE daylight
04 Aug - 04:16:48 10° SSE 04:21:53 30° ESE 04:26:51 10° NE visible
04 Aug - 05:58:52 10° WSW 06:03:49 28° WNW 06:08:39 10° N daylight
04 Aug - 14:50:24 10° N 14:54:00 23° ENE 14:57:26 10° ESE daylight
04 Aug - 16:32:50 10° WNW 16:35:43 17° WSW 16:38:31 10° SSW daylight
05 Aug - 03:29:42 10° SE 03:32:18 13° ESE 03:34:53 10° ENE visible
05 Aug - 05:08:07 10° SW 05:13:55 60° WNW 05:19:35 10° NNE visible
05 Aug - 15:41:54 10° NW 15:46:09 48° WSW 15:50:13 10° S daylight
06 Aug - 04:18:19 10° S 04:24:09 63° ESE 04:29:49 10° NNE visible
06 Aug - 06:03:33 10° W 06:06:27 14° WNW 06:09:18 10° NNW daylight
06 Aug - 14:52:03 10° NNW 14:56:26 57° ENE 15:00:35 10° SE daylight
07 Aug - 03:29:33 10° SSE 03:34:28 28° ESE 03:39:18 10° NE visible
07 Aug - 05:11:19 10° WSW 05:16:23 30° WNW 05:21:20 10° N visible
07 Aug - 14:03:07 10° N 14:06:31 21° ENE 14:09:47 10° ESE daylight
07 Aug - 15:45:11 10° WNW 15:48:17 19° WSW 15:51:18 10° SSW daylight
